Regional Weather Roundup
Issued by NWS

Home | Current Version | Previous Version | Graphics & Text | Print | Product List | Glossary On
Versions: 1 2 3 4 5 6 7 8 9 10 11 12 13 14 15 16 17 18 19 20 21 22 23 24 25 26 27 28 29 30 31 32 33 34 35 36 37 38 39 40 41 42 43 44 45 46 47 48 49 50
000
ASUS43 KIND 020059
RWRIN

WEATHER ROUNDUP FOR INDIANA
NATIONAL WEATHER SERVICE INDIANAPOLIS IN
900 PM EDT TUE SEP 01 2015

NOTE: "FAIR" INDICATES FEW OR NO CLOUDS BELOW 12,000 FEET WITH NO
SIGNIFICANT WEATHER AND/OR OBSTRUCTIONS TO VISIBILITY.

* - STATION DOES NOT REPORT WEATHER SUCH AS PRECIPITATION OR FOG.

+ - STATION NOT QUALITY CONTROLLED BY THE NATIONAL WEATHER SERVICE.
    USE DATA WITH CAUTION...ESPECIALLY DEWPOINT AND RELATIVE
    HUMIDITY OBSERVATIONS.

INZ001>003-010>013-019-020-020200-
NORTHWEST INDIANA

CITY           SKY/WX    TMP DP  RH WIND       PRES   REMARKS
GARY /AIRPORT/ PTCLDY    82  70  65 S7        30.03R
KNOX *+        CLEAR     75  68  78 SW5       30.04R
MONTICELLO +   CLEAR     76  70  81 CALM      30.05S
RENSSELAER +   CLEAR     73  72  94 S3        30.06S

$$

LMZ046-743>745-020200-
SOUTHERN LAKE MICHIGAN

STATION/POSITION TIME  TEMP    WIND        PRES    WAVE
                       AIR SEA DIR/SP/G            HT
                 (UTC) (F)     (DEG/KT/KT) (MB)    (FT)
BURNS HARBOR     0000   83     180/  8/ 12 1016.9R
MICHIGAN CITY    0000   82     170/  8/  9   N/A
5NW MICH CITY    0000   77 73  200/  6/  6   N/A     1

$$

INZ004-005-014>016-021>024-020200-
NORTH CENTRAL INDIANA

CITY           SKY/WX    TMP DP  RH WIND       PRES   REMARKS
ELKHART        CLEAR     77  72  83 SW3       30.06R
GOSHEN         CLEAR     76  69  79 S7        30.06R
PERU/GRISSOM   CLEAR     73  67  80 SW5       30.07R
SOUTH BEND     CLEAR     78  69  73 S5        30.05R

$$

INZ006>009-017-018-025>027-020200-
NORTHEAST INDIANA

CITY           SKY/WX    TMP DP  RH WIND       PRES   REMARKS
ANGOLA *+      CLEAR     75  72  88 S3        30.07R
FORT WAYNE     PTCLDY    74  68  81 S7        30.09R

$$

INZ028-029-035-036-043>045-051>053-020200-
WEST CENTRAL INDIANA

CITY           SKY/WX    TMP DP  RH WIND       PRES   REMARKS
CRAWFORDSVL +  CLEAR     69  65  87 CALM      30.08S
GREENCASTLE +  CLEAR     72  64  78 CALM      30.10R
LAFAYETTE      CLEAR     76  67  73 CALM      30.06S
TERRE HAUTE    CLEAR     75  67  76 CALM      30.08S

$$

INZ030>032-037>040-046>048-054>057-064-065-020200-
CENTRAL INDIANA

CITY           SKY/WX    TMP DP  RH WIND       PRES   REMARKS
FRANKFORT +    CLEAR     74  69  85 CALM      30.10S
GREENWOOD *+   CLEAR     72  64  78 CALM      30.10R
INDIANAPOLIS   PTCLDY    75  65  70 SW6       30.09R
-EAGLE CREEK   CLEAR     78  66  66 SW3       30.08S
KOKOMO *+      CLEAR     75  63  64 SW6       30.08R
MT COMFORT *+  CLEAR     72  64  78 SW5       30.10R
SHELBYVILLE    CLEAR     77  69  76 S5        30.09R

$$

INZ033-034-041-042-049-050-058-059-020200-
EAST CENTRAL INDIANA

CITY           SKY/WX    TMP DP  RH WIND       PRES   REMARKS
MUNCIE         CLEAR     75  68  78 S3        30.10R

$$

INZ060-061-067>069-081>083-085>088-020200-
SOUTHWEST INDIANA

CITY           SKY/WX    TMP DP  RH WIND       PRES   REMARKS
EVANSVILLE     PTCLDY    82  69  64 CALM      30.08R
HUNTINGBURG *+ CLEAR     77  70  78 CALM      30.09S

$$

INZ062-063-066-070>080-084-089>092-020200-
SOUTH CENTRAL AND SOUTHEAST INDIANA

CITY           SKY/WX    TMP DP  RH WIND       PRES   REMARKS
BLOOMINGTON    CLEAR     73  70  90 CALM      30.10R
MADISON *+     CLEAR     73  68  83 CALM      30.12R
SEYMOUR +      CLEAR     77  70  78 CALM      30.09R

$$




USA.gov is the U.S. government's official web portal to all federal, state and local government web resources and services.